Regional Weather Roundup
Issued by NWS

Home | Current Version | Previous Version | Graphics & Text | Print | Product List | Glossary On
Versions: 1 2 3 4 5 6 7 8 9 10 11 12 13 14 15 16 17 18 19 20 21 22 23 24 25 26 27 28 29 30 31 32 33 34 35 36 37 38 39 40 41 42 43 44 45 46 47 48 49 50
000
ASUS43 KBIS 250010
RWRND

NORTH DAKOTA REGIONAL WEATHER ROUNDUP
NATIONAL WEATHER SERVICE BISMARCK ND
700 PM CDT FRI OCT 24 2014

NOTE: "FAIR" INDICATES FEW OR NO CLOUDS BELOW 12,000 FEET WITH NO
SIGNIFICANT WEATHER AND/OR OBSTRUCTIONS TO VISIBILITY.


NDZ001>003-009>011-017-250100-
NORTHWEST NORTH DAKOTA

CITY           SKY/WX    TMP DP  RH WIND       PRES   REMARKS
WILLISTON      MOCLDY    52  27  38 W6        29.98R
6HR MIN TEMP:  52; 6HR MAX TEMP:  63;

MINOT          CLEAR     57  26  30 W16       29.91R
MINOT AFB      CLEAR     53  29  40 W10       29.90R
$$

NDZ018>021-031>035-040>046-250100-
SOUTHWEST NORTH DAKOTA

CITY           SKY/WX    TMP DP  RH WIND       PRES   REMARKS
BISMARCK       MOCLDY    62  35  36 W10       29.97R
6HR MIN TEMP:  62; 6HR MAX TEMP:  73;

DICKINSON      CLOUDY    50  29  44 SW10      30.00S
GARRISON         N/A     53  31  42 W9        29.95R
6HR MIN TEMP:  53; 6HR MAX TEMP:  66;

HETTINGER ARPT CLOUDY    54  33  45 W7        30.05R
$$

NDZ004>008-012>016-024-026-027-054-250100-
NORTHEAST NORTH DAKOTA

CITY           SKY/WX    TMP DP  RH WIND       PRES   REMARKS
GRAND FORKS    PTCLDY    62  32  32 W12G20    29.80R
GRND FRKS AFB  PTCLDY    62  32  32 W10       29.82R
DEVILS LAKE    PTCLDY    57  32  38 W13       29.84R
$$

NDZ022-023-025-028>030-036>039-047>053-250100-
SOUTHEAST NORTH DAKOTA

CITY           SKY/WX    TMP DP  RH WIND       PRES   REMARKS
FARGO          MOCLDY    66  38  35 W16       29.84R
6HR MIN TEMP:  65; 6HR MAX TEMP:  78;

JAMESTOWN      PTCLDY    57  34  41 W10       29.90R
$$




USA.gov is the U.S. government's official web portal to all federal, state and local government web resources and services.